Time,TemperatureF,DewpointF,PressureIn,WindDirection,WindDirectionDegrees,WindSpeedMPH,WindSpeedGustMPH,Humidity,HourlyPrecipIn,Conditions,Clouds,dailyrainin,SolarRadiationWatts/m^2,SoftwareType,DateUTC
2013-07-15 00:00:00,71.5,61.6,29.96,SE,138,0.0,1.0,71,0.00,,BKN009,0.00,0.00,VWS V14.01,2013-07-15 05:00:00,
2013-07-15 00:01:00,71.5,61.6,29.96,SE,138,0.0,1.0,71,0.00,,CLR,0.00,0.00,VWS V14.01,2013-07-15 05:01:00,
2013-07-15 00:05:00,71.5,61.6,29.96,SE,138,0.0,0.0,71,0.00,,BKN009,0.00,0.00,VWS V14.01,2013-07-15 05:05:00,
2013-07-15 00:06:00,71.5,61.6,29.96,SE,138,0.0,1.0,71,0.00,,CLR,0.00,0.00,VWS V14.01,2013-07-15 05:06:00,
2013-07-15 00:10:00,71.4,61.5,29.96,SSE,161,0.0,1.0,71,0.00,,BKN009,0.00,0.00,VWS V14.01,2013-07-15 05:10:00,
2013-07-15 00:11:00,71.4,61.9,29.96,SSE,161,0.0,1.0,72,0.00,,CLR,0.00,0.00,VWS V14.01,2013-07-15 05:11:00,
2013-07-15 00:15:00,71.3,61.8,29.96,SSE,161,0.0,1.0,72,0.00,,BKN009,0.00,0.00,VWS V14.01,2013-07-15 05:15:00,
2013-07-15 00:16:00,71.3,61.8,29.96,SSE,161,0.0,0.0,72,0.00,,CLR,0.00,0.00,VWS V14.01,2013-07-15 05:16:00,
2013-07-15 00:20:00,71.3,61.8,29.96,SSE,161,0.0,1.0,72,0.00,,BKN009,0.00,0.00,VWS V14.01,2013-07-15 05:20:00,
2013-07-15 00:21:00,71.3,61.8,29.96,SSE,161,0.0,0.0,72,0.00,,CLR,0.00,0.00,VWS V14.01,2013-07-15 05:21:00,
2013-07-15 00:25:00,71.2,62.1,29.96,SSE,155,0.0,2.0,73,0.00,,BKN009,0.00,0.00,VWS V14.01,2013-07-15 05:25:00,
2013-07-15 00:26:00,71.2,61.7,29.96,SE,142,2.0,2.0,72,0.00,,CLR,0.00,0.00,VWS V14.01,2013-07-15 05:26:00,
2013-07-15 00:30:00,71.2,62.1,29.96,NNW,337,0.0,3.0,73,0.00,,BKN009,0.00,0.00,VWS V14.01,2013-07-15 05:30:00,
2013-07-15 00:31:00,71.2,62.1,29.96,NNW,337,0.0,0.0,73,0.00,,CLR,0.00,0.00,VWS V14.01,2013-07-15 05:31:00,
2013-07-15 00:35:00,71.2,62.1,29.96,NW,325,1.0,2.0,73,0.00,,BKN009,0.00,0.00,VWS V14.01,2013-07-15 05:35:00,
2013-07-15 00:36:00,71.2,62.1,29.96,NW,318,0.0,2.0,73,0.00,,CLR,0.00,0.00,VWS V14.01,2013-07-15 05:36:00,
2013-07-15 00:40:00,71.2,62.1,29.96,NW,318,0.0,2.0,73,0.00,,BKN009,0.00,0.00,VWS V14.01,2013-07-15 05:40:00,
2013-07-15 00:41:00,71.2,62.1,29.96,NW,317,2.0,3.0,73,0.00,,CLR,0.00,0.00,VWS V14.01,2013-07-15 05:41:00,
2013-07-15 00:45:00,71.3,62.2,29.97,SW,218,0.0,3.0,73,0.00,,BKN009,0.00,0.00,VWS V14.01,2013-07-15 05:45:00,
2013-07-15 00:46:00,71.3,62.2,29.97,SW,218,0.0,0.0,73,0.00,,CLR,0.00,0.00,VWS V14.01,2013-07-15 05:46:00,
2013-07-15 00:50:00,71.2,62.1,29.97,SW,218,0.0,0.0,73,0.00,,BKN009,0.00,0.00,VWS V14.01,2013-07-15 05:50:00,
2013-07-15 00:51:00,71.2,62.1,29.97,SW,218,0.0,0.0,73,0.00,,CLR,0.00,0.00,VWS V14.01,2013-07-15 05:51:00,
2013-07-15 00:55:00,71.2,62.1,29.97,SW,218,0.0,0.0,73,0.00,,BKN009,0.00,0.00,VWS V14.01,2013-07-15 05:55:00,
2013-07-15 00:56:00,71.2,62.5,29.97,SW,218,0.0,0.0,74,0.00,,CLR,0.00,0.00,VWS V14.01,2013-07-15 05:56:00,
2013-07-15 01:00:00,71.2,62.5,29.97,SW,218,0.0,0.0,74,0.00,,BKN009,0.00,0.00,VWS V14.01,2013-07-15 06:00:00,
2013-07-15 01:01:00,71.2,62.5,29.97,SW,218,0.0,0.0,74,0.00,,CLR,0.00,0.00,VWS V14.01,2013-07-15 06:01:00,
2013-07-15 01:05:00,71.1,62.4,29.97,SW,218,0.0,0.0,74,0.00,,BKN009,0.00,0.00,VWS V14.01,2013-07-15 06:05:00,
2013-07-15 01:07:00,71.1,62.4,29.97,SW,218,0.0,0.0,74,0.00,,CLR,0.00,0.00,VWS V14.01,2013-07-15 06:07:00,
2013-07-15 01:10:00,71.0,62.7,29.97,SW,218,0.0,0.0,75,0.00,,BKN009,0.00,0.00,VWS V14.01,2013-07-15 06:10:00,
2013-07-15 01:12:00,71.0,62.3,29.97,SW,218,0.0,0.0,74,0.00,,CLR,0.00,0.00,VWS V14.01,2013-07-15 06:12:00,
2013-07-15 01:15:00,71.0,62.7,29.97,SW,218,0.0,1.0,75,0.00,,BKN009,0.00,0.00,VWS V14.01,2013-07-15 06:15:00,
2013-07-15 01:17:00,70.9,62.6,29.97,SW,218,0.0,0.0,75,0.00,,CLR,0.00,0.00,VWS V14.01,2013-07-15 06:17:00,
2013-07-15 01:20:00,70.8,62.9,29.97,SW,218,0.0,1.0,76,0.00,,BKN009,0.00,0.00,VWS V14.01,2013-07-15 06:20:00,
2013-07-15 01:22:00,70.8,62.9,29.97,SW,218,0.0,1.0,76,0.00,,CLR,0.00,0.00,VWS V14.01,2013-07-15 06:22:00,
2013-07-15 01:25:00,70.7,62.8,29.97,SW,218,0.0,1.0,76,0.00,,BKN009,0.00,0.00,VWS V14.01,2013-07-15 06:25:00,
2013-07-15 01:27:00,70.7,63.1,29.97,SW,218,0.0,0.0,77,0.00,,CLR,0.00,0.00,VWS V14.01,2013-07-15 06:27:00,
2013-07-15 01:30:00,70.6,63.0,29.97,SW,218,0.0,0.0,77,0.00,,BKN009,0.00,0.00,VWS V14.01,2013-07-15 06:30:00,
2013-07-15 01:32:00,70.6,62.7,29.97,SW,218,0.0,0.0,76,0.00,,CLR,0.00,0.00,VWS V14.01,2013-07-15 06:32:00,
2013-07-15 01:35:00,70.5,63.0,29.97,SW,218,0.0,0.0,77,0.00,,BKN009,0.00,0.00,VWS V14.01,2013-07-15 06:35:00,
2013-07-15 01:37:00,70.4,62.8,29.97,SW,218,0.0,0.0,77,0.00,,CLR,0.00,0.00,VWS V14.01,2013-07-15 06:37:00,
2013-07-15 01:40:00,70.4,62.8,29.97,SW,218,0.0,0.0,77,0.00,,BKN009,0.00,0.00,VWS V14.01,2013-07-15 06:40:00,
2013-07-15 01:42:00,70.3,63.1,29.97,SW,218,0.0,0.0,78,0.00,,CLR,0.00,0.00,VWS V14.01,2013-07-15 06:42:00,
2013-07-15 01:45:00,70.2,63.0,29.97,SW,218,0.0,0.0,78,0.00,,BKN009,0.00,0.00,VWS V14.01,2013-07-15 06:45:00,
2013-07-15 01:47:00,70.2,63.0,29.97,SW,218,0.0,0.0,78,0.00,,CLR,0.00,0.00,VWS V14.01,2013-07-15 06:47:00,
2013-07-15 01:50:00,70.1,63.3,29.97,SW,218,0.0,1.0,79,0.00,,BKN009,0.00,0.00,VWS V14.01,2013-07-15 06:50:00,
2013-07-15 01:52:00,70.0,63.2,29.97,SW,218,0.0,0.0,79,0.00,,CLR,0.00,0.00,VWS V14.01,2013-07-15 06:52:00,
2013-07-15 01:55:00,69.9,63.1,29.97,SW,218,0.0,0.0,79,0.00,,BKN009,0.00,0.00,VWS V14.01,2013-07-15 06:55:00,
2013-07-15 01:57:00,69.9,63.5,29.97,SW,218,0.0,0.0,80,0.00,,CLR,0.00,0.00,VWS V14.01,2013-07-15 06:57:00,
2013-07-15 02:00:00,69.8,63.4,29.97,SW,218,0.0,1.0,80,0.00,,BKN009,0.00,0.00,VWS V14.01,2013-07-15 07:00:00,
2013-07-15 02:02:00,69.7,63.6,29.97,SW,218,0.0,0.0,81,0.00,,CLR,0.00,0.00,VWS V14.01,2013-07-15 07:02:00,
2013-07-15 02:05:00,69.6,63.5,29.97,SW,218,1.0,1.0,81,0.00,,BKN009,0.00,0.00,VWS V14.01,2013-07-15 07:05:00,
2013-07-15 02:07:00,69.5,63.4,29.97,SW,218,0.0,2.0,81,0.00,,CLR,0.00,0.00,VWS V14.01,2013-07-15 07:07:00,
2013-07-15 02:10:00,69.4,63.3,29.97,SW,218,0.0,2.0,81,0.00,,BKN009,0.00,0.00,VWS V14.01,2013-07-15 07:10:00,
2013-07-15 02:12:00,69.4,63.3,29.97,SW,218,0.0,0.0,81,0.00,,CLR,0.00,0.00,VWS V14.01,2013-07-15 07:12:00,
2013-07-15 02:15:00,69.3,63.6,29.97,SW,218,0.0,1.0,82,0.00,,BKN009,0.00,0.00,VWS V14.01,2013-07-15 07:15:00,
2013-07-15 02:17:00,69.2,63.5,29.97,SW,218,0.0,0.0,82,0.00,,CLR,0.00,0.00,VWS V14.01,2013-07-15 07:17:00,
2013-07-15 02:20:00,69.1,63.7,29.97,SW,218,0.0,1.0,83,0.00,,BKN009,0.00,0.00,VWS V14.01,2013-07-15 07:20:00,
2013-07-15 02:22:00,69.1,63.7,29.97,SW,218,0.0,0.0,83,0.00,,CLR,0.00,0.00,VWS V14.01,2013-07-15 07:22:00,
2013-07-15 02:25:00,69.0,63.6,29.97,SW,218,0.0,0.0,83,0.00,,BKN009,0.00,0.00,VWS V14.01,2013-07-15 07:25:00,
2013-07-15 02:27:00,69.0,63.6,29.97,SW,218,0.0,0.0,83,0.00,,CLR,0.00,0.00,VWS V14.01,2013-07-15 07:27:00,
2013-07-15 02:30:00,69.0,64.0,29.97,SW,218,0.0,0.0,84,0.00,,BKN009,0.00,0.00,VWS V14.01,2013-07-15 07:30:00,
2013-07-15 02:32:00,68.9,63.9,29.97,SW,218,0.0,0.0,84,0.00,,CLR,0.00,0.00,VWS V14.01,2013-07-15 07:32:00,
2013-07-15 02:35:00,68.9,63.9,29.97,SW,218,0.0,0.0,84,0.00,,BKN009,0.00,0.00,VWS V14.01,2013-07-15 07:35:00,
2013-07-15 02:37:00,68.9,64.2,29.97,SW,218,0.0,1.0,85,0.00,,CLR,0.00,0.00,VWS V14.01,2013-07-15 07:37:00,
2013-07-15 02:40:00,68.8,64.1,29.97,SW,218,0.0,1.0,85,0.00,,BKN009,0.00,0.00,VWS V14.01,2013-07-15 07:40:00,
2013-07-15 02:42:00,68.8,64.1,29.97,SW,218,1.0,1.0,85,0.00,,CLR,0.00,0.00,VWS V14.01,2013-07-15 07:42:00,
2013-07-15 02:45:00,68.8,64.1,29.96,SW,218,0.0,1.0,85,0.00,,BKN009,0.00,0.00,VWS V14.01,2013-07-15 07:45:00,
2013-07-15 02:47:00,68.8,64.4,29.96,SW,218,0.0,1.0,86,0.00,,CLR,0.00,0.00,VWS V14.01,2013-07-15 07:47:00,
2013-07-15 02:50:00,68.8,64.4,29.96,SW,218,0.0,1.0,86,0.00,,BKN009,0.00,0.00,VWS V14.01,2013-07-15 07:50:00,
2013-07-15 02:52:00,68.8,64.4,29.96,SW,218,0.0,1.0,86,0.00,,CLR,0.00,0.00,VWS V14.01,2013-07-15 07:52:00,
2013-07-15 02:55:00,68.9,64.5,29.96,SW,218,0.0,1.0,86,0.00,,BKN009,0.00,0.00,VWS V14.01,2013-07-15 07:55:00,
2013-07-15 02:57:00,68.9,64.6,29.96,SW,218,0.0,0.0,86,0.00,,CLR,0.00,0.00,VWS V14.01,2013-07-15 07:57:00,
2013-07-15 03:00:00,68.9,64.5,29.96,SW,218,0.0,0.0,86,0.00,,BKN009,0.00,0.00,VWS V14.01,2013-07-15 08:00:00,
2013-07-15 03:02:00,68.9,64.6,29.96,SW,218,0.0,0.0,86,0.00,,CLR,0.00,0.00,VWS V14.01,2013-07-15 08:02:00,
2013-07-15 03:05:00,68.9,64.5,29.96,SW,218,0.0,1.0,86,0.00,,BKN009,0.00,0.00,VWS V14.01,2013-07-15 08:05:00,
2013-07-15 03:07:00,68.9,64.6,29.96,SW,218,0.0,0.0,86,0.00,,CLR,0.00,0.00,VWS V14.01,2013-07-15 08:07:00,
2013-07-15 03:10:00,68.8,64.8,29.96,SW,218,0.0,1.0,87,0.00,,BKN009,0.00,0.00,VWS V14.01,2013-07-15 08:10:00,
2013-07-15 03:12:00,68.8,64.8,29.96,SW,218,0.0,0.0,87,0.00,,CLR,0.00,0.00,VWS V14.01,2013-07-15 08:12:00,
2013-07-15 03:15:00,68.8,64.8,29.96,SW,218,0.0,0.0,87,0.00,,BKN009,0.00,0.00,VWS V14.01,2013-07-15 08:15:00,
2013-07-15 03:17:00,68.8,64.8,29.96,SW,218,0.0,1.0,87,0.00,,CLR,0.00,0.00,VWS V14.01,2013-07-15 08:17:00,
2013-07-15 03:20:00,68.8,64.8,29.96,South,187,0.0,4.0,87,0.00,,BKN009,0.00,0.00,VWS V14.01,2013-07-15 08:20:00,
2013-07-15 03:23:00,68.8,64.8,29.96,South,187,0.0,1.0,87,0.00,,CLR,0.00,0.00,VWS V14.01,2013-07-15 08:23:00,
2013-07-15 03:25:00,68.8,64.8,29.96,South,187,0.0,1.0,87,0.00,,BKN009,0.00,0.00,VWS V14.01,2013-07-15 08:25:00,
2013-07-15 03:28:00,68.8,65.1,29.96,South,187,0.0,0.0,88,0.00,,CLR,0.00,0.00,VWS V14.01,2013-07-15 08:28:00,
2013-07-15 03:30:00,68.8,65.1,29.96,South,184,0.0,1.0,88,0.00,,BKN009,0.00,0.00,VWS V14.01,2013-07-15 08:30:00,
2013-07-15 03:33:00,68.8,65.1,29.96,SSW,200,0.0,2.0,88,0.00,,CLR,0.00,0.00,VWS V14.01,2013-07-15 08:33:00,
2013-07-15 03:35:00,68.8,65.1,29.96,SE,144,0.0,3.0,88,0.00,,BKN009,0.00,0.00,VWS V14.01,2013-07-15 08:35:00,
2013-07-15 03:38:00,68.9,65.2,29.96,North,355,0.0,1.0,88,0.00,,CLR,0.00,0.00,VWS V14.01,2013-07-15 08:38:00,
2013-07-15 03:40:00,68.9,65.2,29.96,North,355,0.0,1.0,88,0.00,,BKN009,0.00,0.00,VWS V14.01,2013-07-15 08:40:00,
2013-07-15 03:43:00,68.9,65.2,29.96,SE,138,0.0,2.0,88,0.00,,CLR,0.00,0.00,VWS V14.01,2013-07-15 08:43:00,
2013-07-15 03:45:00,68.9,65.2,29.97,SE,138,0.0,2.0,88,0.00,,BKN009,0.00,0.00,VWS V14.01,2013-07-15 08:45:00,
2013-07-15 03:48:00,68.9,65.2,29.97,SE,138,0.0,1.0,88,0.00,,CLR,0.00,0.00,VWS V14.01,2013-07-15 08:48:00,
2013-07-15 03:50:00,68.9,65.2,29.97,SSE,151,1.0,2.0,88,0.00,,BKN009,0.00,0.00,VWS V14.01,2013-07-15 08:50:00,
2013-07-15 03:53:00,68.9,65.5,29.97,SSW,193,2.0,2.0,89,0.00,,CLR,0.00,0.00,VWS V14.01,2013-07-15 08:53:00,
2013-07-15 03:55:00,68.9,65.5,29.97,SSW,193,0.0,2.0,89,0.00,,BKN009,0.00,0.00,VWS V14.01,2013-07-15 08:55:00,
2013-07-15 03:58:00,68.8,65.4,29.97,SSE,149,0.0,3.0,89,0.00,,CLR,0.00,0.00,VWS V14.01,2013-07-15 08:58:00,
2013-07-15 04:00:00,68.9,65.5,29.97,SSE,149,0.0,3.0,89,0.00,,BKN009,0.00,0.00,VWS V14.01,2013-07-15 09:00:00,
2013-07-15 04:03:00,68.8,65.4,29.97,SSE,149,0.0,0.0,89,0.00,,CLR,0.00,0.00,VWS V14.01,2013-07-15 09:03:00,
2013-07-15 04:05:00,68.8,65.4,29.97,SSE,149,0.0,1.0,89,0.00,,BKN009,0.00,0.00,VWS V14.01,2013-07-15 09:05:00,
2013-07-15 04:08:00,68.8,65.4,29.97,SSE,149,0.0,0.0,89,0.00,,CLR,0.00,0.00,VWS V14.01,2013-07-15 09:08:00,
2013-07-15 04:10:00,68.8,65.4,29.97,SSE,149,0.0,1.0,89,0.00,,BKN009,0.00,0.00,VWS V14.01,2013-07-15 09:10:00,
2013-07-15 04:13:00,68.8,65.4,29.97,East,100,0.0,2.0,89,0.00,,CLR,0.00,0.00,VWS V14.01,2013-07-15 09:13:00,
2013-07-15 04:15:00,68.7,65.3,29.97,East,82,0.0,2.0,89,0.00,,BKN009,0.00,0.00,VWS V14.01,2013-07-15 09:15:00,
2013-07-15 04:18:00,68.7,65.3,29.97,SE,129,0.0,1.0,89,0.00,,CLR,0.00,0.00,VWS V14.01,2013-07-15 09:18:00,
2013-07-15 04:20:00,68.7,65.7,29.97,WNW,287,0.0,3.0,90,0.00,,BKN009,0.00,0.00,VWS V14.01,2013-07-15 09:20:00,
2013-07-15 04:23:00,68.7,65.7,29.97,WNW,287,0.0,0.0,90,0.00,,CLR,0.00,0.00,VWS V14.01,2013-07-15 09:23:00,
2013-07-15 04:25:00,68.7,65.7,29.97,WNW,287,0.0,1.0,90,0.00,,BKN009,0.00,0.00,VWS V14.01,2013-07-15 09:25:00,
2013-07-15 04:28:00,68.7,65.7,29.97,WNW,287,0.0,1.0,90,0.00,,CLR,0.00,0.00,VWS V14.01,2013-07-15 09:28:00,
2013-07-15 04:30:00,68.7,65.7,29.97,ENE,63,0.0,2.0,90,0.00,,BKN009,0.00,0.00,VWS V14.01,2013-07-15 09:30:00,
2013-07-15 04:33:00,68.7,65.7,29.97,East,101,0.0,1.0,90,0.00,,CLR,0.00,0.00,VWS V14.01,2013-07-15 09:33:00,
2013-07-15 04:35:00,68.7,65.7,29.97,East,101,0.0,1.0,90,0.00,,BKN009,0.00,0.00,VWS V14.01,2013-07-15 09:35:00,
2013-07-15 04:38:00,68.6,65.6,29.97,East,101,0.0,1.0,90,0.00,,CLR,0.00,0.00,VWS V14.01,2013-07-15 09:38:00,
2013-07-15 04:40:00,68.6,65.6,29.97,East,101,0.0,1.0,90,0.00,,BKN009,0.00,0.00,VWS V14.01,2013-07-15 09:40:00,
2013-07-15 04:43:00,68.6,65.9,29.97,ESE,119,0.0,2.0,91,0.00,,CLR,0.00,0.00,VWS V14.01,2013-07-15 09:43:00,
2013-07-15 04:45:00,68.6,65.9,29.97,ESE,119,0.0,2.0,91,0.00,,BKN009,0.00,0.00,VWS V14.01,2013-07-15 09:45:00,
2013-07-15 04:48:00,68.6,65.6,29.97,ESE,119,0.0,0.0,90,0.00,,CLR,0.00,0.00,VWS V14.01,2013-07-15 09:48:00,
2013-07-15 04:50:00,68.6,65.9,29.97,ESE,119,0.0,1.0,91,0.00,,BKN009,0.00,0.00,VWS V14.01,2013-07-15 09:50:00,
2013-07-15 04:53:00,68.6,65.9,29.97,South,191,0.0,2.0,91,0.00,,CLR,0.00,0.00,VWS V14.01,2013-07-15 09:53:00,
2013-07-15 04:55:00,68.6,65.9,29.97,NE,35,1.0,2.0,91,0.00,,BKN009,0.00,0.00,VWS V14.01,2013-07-15 09:55:00,
2013-07-15 04:58:00,68.5,65.8,29.97,NE,35,0.0,1.0,91,0.00,,CLR,0.00,0.00,VWS V14.01,2013-07-15 09:58:00,
2013-07-15 05:00:00,68.5,65.8,29.98,ENE,63,0.0,1.0,91,0.00,,BKN009,0.00,0.00,VWS V14.01,2013-07-15 10:00:00,
2013-07-15 05:03:00,68.5,65.8,29.98,SSE,161,1.0,2.0,91,0.00,,CLR,0.00,0.00,VWS V14.01,2013-07-15 10:03:00,
2013-07-15 05:05:00,68.5,65.8,29.98,SSE,161,1.0,2.0,91,0.00,,BKN009,0.00,0.00,VWS V14.01,2013-07-15 10:05:00,
2013-07-15 05:08:00,68.4,65.7,29.98,South,171,0.0,2.0,91,0.00,,CLR,0.00,0.00,VWS V14.01,2013-07-15 10:08:00,
2013-07-15 05:10:00,68.4,65.7,29.98,South,171,1.0,2.0,91,0.00,,BKN009,0.00,0.00,VWS V14.01,2013-07-15 10:10:00,
2013-07-15 05:13:00,68.4,65.7,29.98,South,171,0.0,1.0,91,0.00,,CLR,0.00,0.00,VWS V14.01,2013-07-15 10:13:00,
2013-07-15 05:15:00,68.4,65.7,29.99,South,171,0.0,1.0,91,0.00,,BKN009,0.00,0.00,VWS V14.01,2013-07-15 10:15:00,
2013-07-15 05:18:00,68.3,65.6,29.99,South,171,0.0,0.0,91,0.00,,CLR,0.00,0.00,VWS V14.01,2013-07-15 10:18:00,
2013-07-15 05:20:00,68.3,65.6,29.99,South,171,0.0,0.0,91,0.00,,BKN009,0.00,0.00,VWS V14.01,2013-07-15 10:20:00,
2013-07-15 05:23:00,68.3,65.6,29.99,South,171,0.0,0.0,91,0.00,,CLR,0.00,0.00,VWS V14.01,2013-07-15 10:23:00,
2013-07-15 05:25:00,68.3,65.6,29.99,South,171,0.0,0.0,91,0.00,,BKN009,0.00,0.00,VWS V14.01,2013-07-15 10:25:00,
2013-07-15 05:28:00,68.2,65.8,29.99,WSW,250,0.0,2.0,92,0.00,,CLR,0.00,0.00,VWS V14.01,2013-07-15 10:28:00,
2013-07-15 05:30:00,68.2,65.8,29.99,WSW,252,0.0,2.0,92,0.00,,BKN009,0.00,0.00,VWS V14.01,2013-07-15 10:30:00,
2013-07-15 05:33:00,68.1,65.7,29.99,WSW,252,0.0,0.0,92,0.00,,CLR,0.00,0.00,VWS V14.01,2013-07-15 10:33:00,
2013-07-15 05:35:00,68.1,65.7,29.99,WSW,252,0.0,1.0,92,0.00,,BKN009,0.00,0.00,VWS V14.01,2013-07-15 10:35:00,
2013-07-15 05:39:00,68.1,65.7,29.99,WSW,239,0.0,2.0,92,0.00,,CLR,0.00,0.00,VWS V14.01,2013-07-15 10:39:00,
2013-07-15 05:40:00,68.1,65.7,29.99,SSW,201,0.0,2.0,92,0.00,,BKN009,0.00,0.00,VWS V14.01,2013-07-15 10:40:00,
2013-07-15 05:44:00,68.1,66.0,29.99,East,98,0.0,5.0,93,0.00,,CLR,0.00,0.00,VWS V14.01,2013-07-15 10:44:00,
2013-07-15 05:45:00,68.1,66.0,29.99,East,98,0.0,5.0,93,0.00,,BKN009,0.00,0.00,VWS V14.01,2013-07-15 10:45:00,
2013-07-15 05:49:00,68.1,66.0,29.99,South,184,0.0,1.0,93,0.00,,CLR,0.00,0.00,VWS V14.01,2013-07-15 10:49:00,
2013-07-15 05:50:00,68.1,66.0,29.99,South,186,3.0,3.0,93,0.00,,BKN009,0.00,0.00,VWS V14.01,2013-07-15 10:50:00,
2013-07-15 05:54:00,68.2,66.4,29.99,SSE,167,0.0,3.0,94,0.00,,CLR,0.00,0.00,VWS V14.01,2013-07-15 10:54:00,
2013-07-15 05:55:00,68.2,66.4,29.99,SE,139,0.0,3.0,94,0.00,,BKN009,0.00,0.00,VWS V14.01,2013-07-15 10:55:00,
2013-07-15 05:59:00,68.3,66.5,29.99,SE,144,1.0,4.0,94,0.00,,CLR,0.00,0.00,VWS V14.01,2013-07-15 10:59:00,
2013-07-15 06:00:00,68.3,66.5,29.99,South,169,0.0,4.0,94,0.00,,BKN009,0.00,0.00,VWS V14.01,2013-07-15 11:00:00,
2013-07-15 06:04:00,68.4,66.6,29.99,NNE,25,0.0,2.0,94,0.00,,FEW010,0.00,0.00,VWS V14.01,2013-07-15 11:04:00,
2013-07-15 06:05:00,68.4,66.6,29.99,NW,318,1.0,2.0,94,0.00,,BKN009,0.00,0.00,VWS V14.01,2013-07-15 11:05:00,
2013-07-15 06:09:00,68.5,66.7,29.99,ESE,121,0.0,2.0,94,0.00,,FEW010,0.00,0.00,VWS V14.01,2013-07-15 11:09:00,
2013-07-15 06:10:00,68.5,66.4,29.99,ESE,121,0.0,2.0,93,0.00,,BKN009,0.00,0.00,VWS V14.01,2013-07-15 11:10:00,
2013-07-15 06:14:00,68.5,66.4,29.99,ESE,121,0.0,1.0,93,0.00,,FEW010,0.00,0.00,VWS V14.01,2013-07-15 11:14:00,
2013-07-15 06:15:00,68.5,66.4,29.99,East,96,0.0,1.0,93,0.00,,BKN009,0.00,0.00,VWS V14.01,2013-07-15 11:15:00,
2013-07-15 06:19:00,68.5,66.4,29.99,East,96,0.0,1.0,93,0.00,,FEW010,0.00,5.00,VWS V14.01,2013-07-15 11:19:00,
2013-07-15 06:20:00,68.5,66.4,29.99,East,96,0.0,1.0,93,0.00,,BKN009,0.00,5.00,VWS V14.01,2013-07-15 11:20:00,
2013-07-15 06:24:00,68.5,66.4,29.99,South,175,0.0,4.0,93,0.00,,FEW010,0.00,7.00,VWS V14.01,2013-07-15 11:24:00,
2013-07-15 06:25:00,68.5,66.4,29.99,South,175,0.0,4.0,93,0.00,,BKN009,0.00,9.00,VWS V14.01,2013-07-15 11:25:00,
2013-07-15 06:29:00,68.5,66.7,29.99,ESE,118,0.0,1.0,94,0.00,,FEW010,0.00,16.00,VWS V14.01,2013-07-15 11:29:00,
2013-07-15 06:30:00,68.5,66.7,30.00,ESE,118,0.0,1.0,94,0.00,,BKN009,0.00,16.00,VWS V14.01,2013-07-15 11:30:00,
2013-07-15 06:34:00,68.5,66.7,30.00,ESE,118,0.0,0.0,94,0.00,,FEW010,0.00,23.00,VWS V14.01,2013-07-15 11:34:00,
2013-07-15 06:35:00,68.6,66.8,30.00,ESE,118,0.0,0.0,94,0.00,,BKN009,0.00,26.00,VWS V14.01,2013-07-15 11:35:00,
2013-07-15 06:39:00,68.6,66.8,30.00,ESE,118,0.0,1.0,94,0.00,,FEW010,0.00,26.00,VWS V14.01,2013-07-15 11:39:00,
2013-07-15 06:40:00,68.6,66.8,30.00,ESE,118,0.0,1.0,94,0.00,,BKN009,0.00,28.00,VWS V14.01,2013-07-15 11:40:00,
2013-07-15 06:44:00,68.7,66.9,30.00,SSW,198,0.0,2.0,94,0.00,,FEW010,0.00,39.00,VWS V14.01,2013-07-15 11:44:00,
2013-07-15 06:45:00,68.7,66.9,30.00,SSW,198,1.0,2.0,94,0.00,,BKN009,0.00,49.00,VWS V14.01,2013-07-15 11:45:00,
2013-07-15 06:49:00,68.8,67.0,30.00,NNE,25,0.0,4.0,94,0.00,,FEW010,0.00,56.00,VWS V14.01,2013-07-15 11:49:00,
2013-07-15 06:50:00,68.9,67.1,30.00,NNE,25,0.0,4.0,94,0.00,,BKN009,0.00,56.00,VWS V14.01,2013-07-15 11:50:00,
2013-07-15 06:54:00,69.0,67.2,30.00,ESE,103,1.0,3.0,94,0.00,,FEW010,0.00,62.00,VWS V14.01,2013-07-15 11:54:00,
2013-07-15 06:55:00,69.0,67.2,30.00,ESE,105,0.0,3.0,94,0.00,,BKN009,0.00,60.00,VWS V14.01,2013-07-15 11:55:00,
2013-07-15 06:59:00,69.1,67.3,30.00,SSE,157,0.0,2.0,94,0.00,,FEW010,0.00,62.00,VWS V14.01,2013-07-15 11:59:00,
2013-07-15 07:00:00,69.2,67.4,30.00,SSE,157,0.0,2.0,94,0.00,,BKN009,0.00,62.00,VWS V14.01,2013-07-15 12:00:00,
2013-07-15 07:04:00,69.3,67.5,30.00,ENE,69,1.0,3.0,94,0.00,,CLR,0.00,51.00,VWS V14.01,2013-07-15 12:04:00,
2013-07-15 07:05:00,69.3,67.5,30.00,ENE,69,0.0,3.0,94,0.00,,BKN009,0.00,51.00,VWS V14.01,2013-07-15 12:05:00,
2013-07-15 07:09:00,69.4,67.6,30.00,South,173,0.0,2.0,94,0.00,,CLR,0.00,35.00,VWS V14.01,2013-07-15 12:09:00,
2013-07-15 07:10:00,69.4,67.3,30.00,South,173,0.0,2.0,93,0.00,,BKN009,0.00,33.00,VWS V14.01,2013-07-15 12:10:00,
2013-07-15 07:14:00,69.5,67.4,30.01,South,183,0.0,2.0,93,0.00,,CLR,0.00,32.00,VWS V14.01,2013-07-15 12:14:00,
2013-07-15 07:15:00,69.5,67.4,30.01,SSE,158,1.0,2.0,93,0.00,,BKN009,0.00,37.00,VWS V14.01,2013-07-15 12:15:00,
2013-07-15 07:19:00,69.6,67.5,30.01,SSE,161,1.0,1.0,93,0.00,,CLR,0.00,54.00,VWS V14.01,2013-07-15 12:19:00,
2013-07-15 07:20:00,69.6,67.5,30.01,SSE,161,0.0,1.0,93,0.00,,BKN009,0.00,62.00,VWS V14.01,2013-07-15 12:20:00,
2013-07-15 07:24:00,69.8,67.7,30.01,East,79,0.0,3.0,93,0.00,,CLR,0.00,91.00,VWS V14.01,2013-07-15 12:24:00,
2013-07-15 07:25:00,69.8,67.7,30.01,East,89,0.0,3.0,93,0.00,,BKN009,0.00,100.00,VWS V14.01,2013-07-15 12:25:00,
2013-07-15 07:29:00,70.2,68.1,30.02,ENE,58,0.0,0.0,93,0.00,,CLR,0.00,118.00,VWS V14.01,2013-07-15 12:29:00,
2013-07-15 07:30:00,70.3,67.9,30.02,East,82,1.0,1.0,92,0.00,,BKN009,0.00,118.00,VWS V14.01,2013-07-15 12:30:00,
2013-07-15 07:34:00,70.7,68.3,30.02,ESE,121,0.0,2.0,92,0.00,,CLR,0.00,135.00,VWS V14.01,2013-07-15 12:34:00,
2013-07-15 07:35:00,70.9,68.2,30.02,ESE,121,0.0,2.0,91,0.00,,BKN009,0.00,134.00,VWS V14.01,2013-07-15 12:35:00,
2013-07-15 07:39:00,71.3,68.5,30.02,ESE,120,0.0,2.0,91,0.00,,CLR,0.00,137.00,VWS V14.01,2013-07-15 12:39:00,
2013-07-15 07:40:00,71.3,68.5,30.02,ESE,120,0.0,2.0,91,0.00,,BKN009,0.00,137.00,VWS V14.01,2013-07-15 12:40:00,
2013-07-15 07:44:00,71.7,68.6,30.02,SE,128,1.0,2.0,90,0.00,,CLR,0.00,146.00,VWS V14.01,2013-07-15 12:44:00,
2013-07-15 07:45:00,71.7,68.3,30.02,SE,128,0.0,2.0,89,0.00,,BKN009,0.00,155.00,VWS V14.01,2013-07-15 12:45:00,
2013-07-15 07:49:00,72.0,68.6,30.02,SSE,159,0.0,3.0,89,0.00,,CLR,0.00,153.00,VWS V14.01,2013-07-15 12:49:00,
2013-07-15 07:50:00,72.0,68.9,30.02,SSE,159,0.0,3.0,90,0.00,,BKN009,0.00,158.00,VWS V14.01,2013-07-15 12:50:00,
2013-07-15 07:55:00,72.3,68.9,30.02,ESE,106,4.0,4.0,89,0.00,,CLR,0.00,162.00,VWS V14.01,2013-07-15 12:55:00,
2013-07-15 08:00:00,72.6,68.8,30.02,SSE,150,1.0,1.0,88,0.00,,CLR,0.00,139.00,VWS V14.01,2013-07-15 13:00:00,
2013-07-15 08:05:00,72.5,68.4,30.02,SSW,207,0.0,7.0,87,0.00,,FEW120,0.00,134.00,VWS V14.01,2013-07-15 13:05:00,
2013-07-15 08:10:00,72.5,68.4,30.02,East,90,0.0,2.0,87,0.00,,FEW120,0.00,144.00,VWS V14.01,2013-07-15 13:10:00,
2013-07-15 08:15:00,72.6,68.8,30.03,SSE,161,0.0,3.0,88,0.00,,FEW120,0.00,149.00,VWS V14.01,2013-07-15 13:15:00,
2013-07-15 08:20:00,72.6,68.5,30.03,SSW,203,0.0,5.0,87,0.00,,FEW120,0.00,156.00,VWS V14.01,2013-07-15 13:20:00,
2013-07-15 08:25:00,72.8,68.7,30.03,East,83,0.0,2.0,87,0.00,,FEW120,0.00,156.00,VWS V14.01,2013-07-15 13:25:00,
2013-07-15 08:30:00,73.1,68.7,30.03,SW,231,3.0,6.0,86,0.00,,FEW120,0.00,220.00,VWS V14.01,2013-07-15 13:30:00,
2013-07-15 08:35:00,73.7,69.6,30.03,ESE,122,0.0,3.0,87,0.00,,FEW120,0.00,264.00,VWS V14.01,2013-07-15 13:35:00,
2013-07-15 08:40:00,74.3,69.5,30.03,ENE,64,0.0,2.0,85,0.00,,FEW120,0.00,276.00,VWS V14.01,2013-07-15 13:40:00,
2013-07-15 08:45:00,74.3,68.8,30.04,South,180,0.0,7.0,83,0.00,,FEW120,0.00,225.00,VWS V14.01,2013-07-15 13:45:00,
2013-07-15 08:50:00,74.3,69.2,30.04,South,176,3.0,5.0,84,0.00,,FEW120,0.00,248.00,VWS V14.01,2013-07-15 13:50:00,
2013-07-15 08:55:00,74.3,69.5,30.04,SSE,148,0.0,4.0,85,0.00,,FEW120,0.00,237.00,VWS V14.01,2013-07-15 13:55:00,
2013-07-15 09:00:00,74.4,69.3,30.04,SE,146,1.0,5.0,84,0.00,,FEW120,0.00,209.00,VWS V14.01,2013-07-15 14:00:00,
2013-07-15 09:05:00,74.2,69.1,30.04,South,188,1.0,3.0,84,0.00,,FEW120,0.00,204.00,VWS V14.01,2013-07-15 14:05:00,
2013-07-15 09:10:00,74.2,69.1,30.04,SE,141,3.0,4.0,84,0.00,,FEW120,0.00,341.00,VWS V14.01,2013-07-15 14:10:00,
2013-07-15 09:15:00,75.0,69.5,30.04,SE,141,3.0,4.0,83,0.00,,FEW120,0.00,399.00,VWS V14.01,2013-07-15 14:15:00,
2013-07-15 09:20:00,75.8,69.9,30.04,NE,52,0.0,3.0,82,0.00,,FEW120,0.00,564.00,VWS V14.01,2013-07-15 14:20:00,
2013-07-15 09:25:00,76.2,69.9,30.04,NW,306,2.0,4.0,81,0.00,,FEW120,0.00,548.00,VWS V14.01,2013-07-15 14:25:00,
2013-07-15 09:30:00,76.3,69.3,30.03,East,100,2.0,11.0,79,0.00,,FEW120,0.00,369.00,VWS V14.01,2013-07-15 14:30:00,
2013-07-15 09:35:00,76.9,70.6,30.03,East,96,3.0,4.0,81,0.00,,FEW120,0.00,719.00,VWS V14.01,2013-07-15 14:35:00,
2013-07-15 09:40:00,77.1,70.1,30.03,West,262,4.0,7.0,79,0.00,,FEW120,0.00,680.00,VWS V14.01,2013-07-15 14:40:00,
2013-07-15 09:45:00,76.5,68.8,30.04,SSW,197,1.0,1.0,77,0.00,,FEW120,0.00,294.00,VWS V14.01,2013-07-15 14:45:00,
2013-07-15 09:50:00,75.6,69.0,30.04,WNW,284,0.0,1.0,80,0.00,,FEW120,0.00,258.00,VWS V14.01,2013-07-15 14:50:00,
2013-07-15 09:55:00,76.0,69.8,30.04,SE,142,0.0,1.0,81,0.00,,FEW120,0.00,294.00,VWS V14.01,2013-07-15 14:55:00,
2013-07-15 10:00:00,76.1,69.1,30.04,East,91,0.0,5.0,79,0.00,,BKN009,0.00,232.00,VWS V14.01,2013-07-15 15:00:00,
2013-07-15 10:01:00,76.1,69.1,30.04,ENE,58,3.0,3.0,79,0.00,,FEW120,0.00,232.00,VWS V14.01,2013-07-15 15:01:00,
2013-07-15 10:05:00,75.3,69.1,30.04,ESE,111,3.0,5.0,81,0.00,,BKN009,0.00,411.00,VWS V14.01,2013-07-15 15:05:00,
2013-07-15 10:07:00,75.3,69.1,30.04,NNE,33,1.0,3.0,81,0.00,,FEW020,0.00,411.00,VWS V14.01,2013-07-15 15:07:00,
2013-07-15 10:10:00,75.8,69.9,30.04,ESE,103,4.0,8.0,82,0.00,,BKN009,0.00,522.00,VWS V14.01,2013-07-15 15:10:00,
2013-07-15 10:14:00,75.8,69.2,30.04,ESE,120,0.0,8.0,80,0.00,,FEW020,0.00,381.00,VWS V14.01,2013-07-15 15:14:00,
2013-07-15 10:15:00,75.9,70.0,30.04,North,10,2.0,8.0,82,0.00,,BKN009,0.00,434.00,VWS V14.01,2013-07-15 15:15:00,
2013-07-15 10:19:00,75.8,69.2,30.04,ESE,107,0.0,5.0,80,0.00,,FEW020,0.00,417.00,VWS V14.01,2013-07-15 15:19:00,
2013-07-15 10:20:00,75.8,69.2,30.04,East,82,2.0,5.0,80,0.00,,BKN009,0.00,478.00,VWS V14.01,2013-07-15 15:20:00,
2013-07-15 10:24:00,76.6,70.3,30.04,WSW,246,3.0,3.0,81,0.00,,FEW020,0.00,881.00,VWS V14.01,2013-07-15 15:24:00,
2013-07-15 10:25:00,76.7,69.7,30.04,East,92,0.0,4.0,79,0.00,,BKN009,0.00,881.00,VWS V14.01,2013-07-15 15:25:00,
2013-07-15 10:29:00,77.0,70.0,30.04,East,80,2.0,6.0,79,0.00,,FEW020,0.00,763.00,VWS V14.01,2013-07-15 15:29:00,
2013-07-15 10:30:00,77.0,69.2,30.04,ESE,114,0.0,6.0,77,0.00,,BKN009,0.00,763.00,VWS V14.01,2013-07-15 15:30:00,
2013-07-15 10:35:00,76.6,69.2,30.04,ESE,114,0.0,5.0,78,0.00,,FEW020,0.00,234.00,VWS V14.01,2013-07-15 15:35:00,
2013-07-15 10:40:00,77.0,69.6,30.04,ESE,110,1.0,4.0,78,0.00,,FEW020,0.00,798.00,VWS V14.01,2013-07-15 15:40:00,
2013-07-15 10:45:00,77.3,69.9,30.04,ESE,115,0.0,5.0,78,0.00,,FEW020,0.00,401.00,VWS V14.01,2013-07-15 15:45:00,
2013-07-15 10:50:00,77.1,69.7,30.04,East,94,3.0,3.0,78,0.00,,BKN009,0.00,329.00,VWS V14.01,2013-07-15 15:50:00,
2013-07-15 10:51:00,77.1,69.3,30.04,SE,142,0.0,5.0,77,0.00,,FEW020,0.00,329.00,VWS V14.01,2013-07-15 15:51:00,
2013-07-15 10:55:00,77.3,69.9,30.04,South,171,0.0,5.0,78,0.00,,BKN009,0.00,329.00,VWS V14.01,2013-07-15 15:55:00,
2013-07-15 10:56:00,77.4,70.0,30.04,ESE,115,1.0,1.0,78,0.00,,FEW020,0.00,329.00,VWS V14.01,2013-07-15 15:56:00,
2013-07-15 11:00:00,78.0,71.0,30.04,WSW,258,0.0,3.0,79,0.00,,BKN009,0.00,967.00,VWS V14.01,2013-07-15 16:00:00,
2013-07-15 11:01:00,78.1,71.1,30.04,WSW,244,1.0,1.0,79,0.00,,FEW020,0.00,967.00,VWS V14.01,2013-07-15 16:01:00,
2013-07-15 11:05:00,78.7,70.1,30.04,SW,234,2.0,5.0,75,0.00,,BKN009,0.00,933.00,VWS V14.01,2013-07-15 16:05:00,
2013-07-15 11:06:00,78.6,69.6,30.04,SW,227,1.0,3.0,74,0.00,,SCT024,0.00,933.00,VWS V14.01,2013-07-15 16:06:00,
2013-07-15 11:10:00,78.4,70.2,30.04,East,88,0.0,3.0,76,0.00,,BKN009,0.00,606.00,VWS V14.01,2013-07-15 16:10:00,
2013-07-15 11:11:00,78.4,71.3,30.04,East,88,0.0,0.0,79,0.00,,SCT024,0.00,209.00,VWS V14.01,2013-07-15 16:11:00,
2013-07-15 11:15:00,77.8,70.4,30.04,East,96,0.0,2.0,78,0.00,,BKN009,0.00,323.00,VWS V14.01,2013-07-15 16:15:00,
2013-07-15 11:17:00,77.7,69.9,30.04,NE,46,2.0,3.0,77,0.00,,SCT024,0.00,367.00,VWS V14.01,2013-07-15 16:17:00,
2013-07-15 11:20:00,77.5,69.3,30.04,East,90,0.0,3.0,76,0.00,,BKN009,0.00,274.00,VWS V14.01,2013-07-15 16:20:00,
2013-07-15 11:23:00,77.8,70.4,30.04,East,85,0.0,1.0,78,0.00,,SCT024,0.00,274.00,VWS V14.01,2013-07-15 16:23:00,
2013-07-15 11:25:00,78.1,70.3,30.04,West,265,1.0,3.0,77,0.00,,BKN009,0.00,214.00,VWS V14.01,2013-07-15 16:25:00,
2013-07-15 11:28:00,78.2,70.0,30.04,SSE,155,0.0,3.0,76,0.00,,SCT024,0.00,225.00,VWS V14.01,2013-07-15 16:28:00,
2013-07-15 11:30:00,78.6,70.4,30.03,South,183,0.0,3.0,76,0.00,,BKN009,0.00,197.00,VWS V14.01,2013-07-15 16:30:00,
2013-07-15 11:33:00,78.8,70.6,30.03,ENE,76,0.0,5.0,76,0.00,,SCT024,0.00,250.00,VWS V14.01,2013-07-15 16:33:00,
2013-07-15 11:35:00,79.2,70.6,30.03,East,98,0.0,5.0,75,0.00,,BKN009,0.00,250.00,VWS V14.01,2013-07-15 16:35:00,
2013-07-15 11:38:00,79.9,70.5,30.03,WSW,249,0.0,5.0,73,0.00,,SCT024,0.00,882.00,VWS V14.01,2013-07-15 16:38:00,
2013-07-15 11:40:00,80.3,70.5,30.03,NW,315,3.0,5.0,72,0.00,,BKN009,0.00,888.00,VWS V14.01,2013-07-15 16:40:00,
2013-07-15 11:43:00,80.7,70.8,30.03,West,265,2.0,4.0,72,0.00,,SCT024,0.00,935.00,VWS V14.01,2013-07-15 16:43:00,
2013-07-15 11:45:00,80.7,70.0,30.03,WNW,290,0.0,4.0,70,0.00,,BKN009,0.00,979.00,VWS V14.01,2013-07-15 16:45:00,
2013-07-15 11:49:00,80.9,70.6,30.03,SE,132,3.0,5.0,71,0.00,,SCT024,0.00,1018.00,VWS V14.01,2013-07-15 16:49:00,
2013-07-15 11:50:00,81.1,70.8,30.03,WNW,292,3.0,5.0,71,0.00,,BKN009,0.00,1018.00,VWS V14.01,2013-07-15 16:50:00,
2013-07-15 11:54:00,81.4,70.7,30.03,East,95,3.0,4.0,70,0.00,,SCT024,0.00,1067.00,VWS V14.01,2013-07-15 16:54:00,
2013-07-15 11:55:00,81.6,70.4,30.03,East,94,2.0,4.0,69,0.00,,BKN009,0.00,990.00,VWS V14.01,2013-07-15 16:55:00,
2013-07-15 11:59:00,82.1,69.2,30.03,SE,133,4.0,6.0,65,0.00,,SCT024,0.00,237.00,VWS V14.01,2013-07-15 16:59:00,
2013-07-15 12:00:00,82.0,70.0,30.03,West,279,2.0,6.0,67,0.00,,BKN009,0.00,237.00,VWS V14.01,2013-07-15 17:00:00,
2013-07-15 12:05:00,81.2,70.1,30.03,SE,126,0.0,5.0,69,0.00,,FEW025,0.00,336.00,VWS V14.01,2013-07-15 17:05:00,
2013-07-15 12:10:00,81.9,70.3,30.03,SE,142,0.0,5.0,68,0.00,,FEW025,0.00,990.00,VWS V14.01,2013-07-15 17:10:00,
2013-07-15 12:15:00,82.7,69.8,30.02,SSE,161,1.0,6.0,65,0.00,,FEW025,0.00,954.00,VWS V14.01,2013-07-15 17:15:00,
2013-07-15 12:20:00,83.8,71.2,30.02,ESE,111,1.0,6.0,66,0.00,,FEW025,0.00,1035.00,VWS V14.01,2013-07-15 17:20:00,
2013-07-15 12:25:00,84.0,70.5,30.02,South,190,0.0,8.0,64,0.00,,FEW025,0.00,1037.00,VWS V14.01,2013-07-15 17:25:00,
2013-07-15 12:30:00,84.2,70.7,30.02,NE,56,3.0,5.0,64,0.00,,FEW025,0.00,253.00,VWS V14.01,2013-07-15 17:30:00,
2013-07-15 12:35:00,82.9,69.9,30.02,WSW,250,0.0,5.0,65,0.00,,BKN009,0.00,995.00,VWS V14.01,2013-07-15 17:35:00,
2013-07-15 12:36:00,82.9,69.9,30.02,WSW,250,0.0,0.0,65,0.00,,FEW025,0.00,991.00,VWS V14.01,2013-07-15 17:36:00,
2013-07-15 12:40:00,83.3,69.4,30.02,SSE,148,1.0,3.0,63,0.00,,BKN009,0.00,218.00,VWS V14.01,2013-07-15 17:40:00,
2013-07-15 12:41:00,83.2,69.3,30.02,SSE,148,0.0,1.0,63,0.00,,FEW025,0.00,218.00,VWS V14.01,2013-07-15 17:41:00,
2013-07-15 12:45:00,83.9,69.5,30.02,SSE,167,0.0,2.0,62,0.00,,BKN009,0.00,979.00,VWS V14.01,2013-07-15 17:45:00,
2013-07-15 12:46:00,84.2,71.6,30.02,SE,140,1.0,1.0,66,0.00,,FEW025,0.00,967.00,VWS V14.01,2013-07-15 17:46:00,
2013-07-15 12:50:00,84.3,69.4,30.02,East,79,1.0,5.0,61,0.00,,BKN009,0.00,1007.00,VWS V14.01,2013-07-15 17:50:00,
2013-07-15 12:53:00,84.1,69.2,30.02,WSW,256,0.0,8.0,61,0.00,,FEW025,0.00,981.00,VWS V14.01,2013-07-15 17:53:00,
2013-07-15 12:55:00,84.5,70.1,30.02,ESE,104,1.0,8.0,62,0.00,,BKN009,0.00,1005.00,VWS V14.01,2013-07-15 17:55:00,
2013-07-15 12:58:00,84.7,70.2,30.02,ESE,105,0.0,4.0,62,0.00,,FEW025,0.00,1049.00,VWS V14.01,2013-07-15 17:58:00,
2013-07-15 13:00:00,84.6,69.2,30.01,NNE,15,0.0,6.0,60,0.00,,BKN009,0.00,1009.00,VWS V14.01,2013-07-15 18:00:00,
2013-07-15 13:04:00,84.8,68.9,30.01,SE,133,0.0,5.0,59,0.00,,FEW032,0.00,1027.00,VWS V14.01,2013-07-15 18:04:00,
2013-07-15 13:05:00,84.9,69.5,30.01,SE,132,3.0,5.0,60,0.00,,BKN009,0.00,1016.00,VWS V14.01,2013-07-15 18:05:00,
2013-07-15 13:09:00,85.1,68.7,30.01,ESE,120,0.0,5.0,58,0.00,,FEW032,0.00,1041.00,VWS V14.01,2013-07-15 18:09:00,
2013-07-15 13:10:00,85.2,69.8,30.01,East,94,1.0,5.0,60,0.00,,BKN009,0.00,1051.00,VWS V14.01,2013-07-15 18:10:00,
2013-07-15 13:14:00,84.9,68.0,30.01,West,280,0.0,4.0,57,0.00,,FEW032,0.00,1044.00,VWS V14.01,2013-07-15 18:14:00,
2013-07-15 13:15:00,84.9,68.0,30.01,West,280,1.0,4.0,57,0.00,,BKN009,0.00,1041.00,VWS V14.01,2013-07-15 18:15:00,
2013-07-15 13:19:00,85.5,69.1,30.01,SE,140,1.0,8.0,58,0.00,,FEW032,0.00,1039.00,VWS V14.01,2013-07-15 18:19:00,
2013-07-15 13:20:00,85.6,69.1,30.01,NW,321,5.0,8.0,58,0.00,,BKN009,0.00,1042.00,VWS V14.01,2013-07-15 18:20:00,
2013-07-15 13:24:00,86.1,68.6,30.01,East,80,0.0,5.0,56,0.00,,FEW032,0.00,1062.00,VWS V14.01,2013-07-15 18:24:00,
2013-07-15 13:25:00,85.9,68.4,30.01,NW,321,2.0,5.0,56,0.00,,BKN009,0.00,401.00,VWS V14.01,2013-07-15 18:25:00,
2013-07-15 13:29:00,85.6,69.1,30.01,East,92,0.0,5.0,58,0.00,,FEW032,0.00,1037.00,VWS V14.01,2013-07-15 18:29:00,
2013-07-15 13:30:00,85.9,69.9,30.00,East,86,0.0,5.0,59,0.00,,BKN009,0.00,1053.00,VWS V14.01,2013-07-15 18:30:00,
2013-07-15 13:34:00,86.4,68.3,30.00,SSE,147,0.0,4.0,55,0.00,,FEW032,0.00,308.00,VWS V14.01,2013-07-15 18:34:00,
2013-07-15 13:35:00,86.3,68.2,30.00,NNE,15,0.0,4.0,55,0.00,,BKN009,0.00,392.00,VWS V14.01,2013-07-15 18:35:00,
2013-07-15 13:39:00,85.5,69.1,30.00,South,180,2.0,5.0,58,0.00,,FEW032,0.00,399.00,VWS V14.01,2013-07-15 18:39:00,
2013-07-15 13:40:00,85.5,68.5,30.00,SW,214,0.0,5.0,57,0.00,,BKN009,0.00,1134.00,VWS V14.01,2013-07-15 18:40:00,
2013-07-15 13:45:00,86.1,69.6,30.00,ENE,73,0.0,2.0,58,0.00,,FEW032,0.00,1086.00,VWS V14.01,2013-07-15 18:45:00,
2013-07-15 13:50:00,85.2,67.2,30.00,East,96,0.0,3.0,55,0.00,,FEW032,0.00,406.00,VWS V14.01,2013-07-15 18:50:00,
2013-07-15 13:55:00,84.0,69.6,30.00,WNW,282,0.0,4.0,62,0.00,,FEW032,0.00,309.00,VWS V14.01,2013-07-15 18:55:00,
2013-07-15 14:00:00,85.7,70.2,30.00,ESE,114,2.0,3.0,60,0.00,,BKN009,0.00,1014.00,VWS V14.01,2013-07-15 19:00:00,
2013-07-15 14:01:00,85.9,71.4,30.00,North,5,2.0,2.0,62,0.00,,SCT060,0.00,1014.00,VWS V14.01,2013-07-15 19:01:00,
2013-07-15 14:05:00,85.6,68.1,30.00,North,355,1.0,5.0,56,0.00,,BKN009,0.00,1018.00,VWS V14.01,2013-07-15 19:05:00,
2013-07-15 14:06:00,85.6,67.6,30.00,North,355,0.0,2.0,55,0.00,,SCT060,0.00,1004.00,VWS V14.01,2013-07-15 19:06:00,
2013-07-15 14:10:00,85.9,67.3,30.00,North,349,2.0,2.0,54,0.00,,BKN009,0.00,176.00,VWS V14.01,2013-07-15 19:10:00,
2013-07-15 14:11:00,85.6,67.1,30.00,North,349,0.0,2.0,54,0.00,,SCT060,0.00,178.00,VWS V14.01,2013-07-15 19:11:00,
2013-07-15 14:15:00,84.5,68.6,29.99,South,182,1.0,4.0,59,0.00,,BKN009,0.00,213.00,VWS V14.01,2013-07-15 19:15:00,
2013-07-15 14:17:00,84.3,68.4,29.99,North,11,0.0,3.0,59,0.00,,SCT060,0.00,979.00,VWS V14.01,2013-07-15 19:17:00,
2013-07-15 14:20:00,85.2,68.8,29.99,SSE,159,1.0,4.0,58,0.00,,BKN009,0.00,1002.00,VWS V14.01,2013-07-15 19:20:00,
2013-07-15 14:22:00,85.6,71.6,29.99,SE,128,1.0,2.0,63,0.00,,SCT060,0.00,1002.00,VWS V14.01,2013-07-15 19:22:00,
2013-07-15 14:25:00,85.4,67.9,29.99,NNW,346,0.0,3.0,56,0.00,,BKN009,0.00,255.00,VWS V14.01,2013-07-15 19:25:00,
2013-07-15 14:27:00,85.3,69.8,29.99,NNW,345,0.0,0.0,60,0.00,,SCT060,0.00,308.00,VWS V14.01,2013-07-15 19:27:00,
2013-07-15 14:30:00,85.4,72.8,29.99,NNW,345,1.0,1.0,66,0.00,,BKN009,0.00,951.00,VWS V14.01,2013-07-15 19:30:00,
2013-07-15 14:32:00,85.8,69.3,29.99,NNW,337,0.0,2.0,58,0.00,,SCT060,0.00,935.00,VWS V14.01,2013-07-15 19:32:00,
2013-07-15 14:35:00,86.4,67.3,29.99,SSE,147,0.0,4.0,53,0.00,,BKN009,0.00,909.00,VWS V14.01,2013-07-15 19:35:00,
2013-07-15 14:38:00,86.6,70.1,29.99,North,355,1.0,3.0,58,0.00,,SCT060,0.00,914.00,VWS V14.01,2013-07-15 19:38:00,
2013-07-15 14:40:00,86.9,69.3,29.99,North,355,0.0,3.0,56,0.00,,BKN009,0.00,944.00,VWS V14.01,2013-07-15 19:40:00,
2013-07-15 14:43:00,87.3,70.7,29.99,SSE,155,3.0,5.0,58,0.00,,SCT060,0.00,983.00,VWS V14.01,2013-07-15 19:43:00,
2013-07-15 14:45:00,87.3,67.5,29.99,NNW,327,3.0,6.0,52,0.00,,BKN009,0.00,983.00,VWS V14.01,2013-07-15 19:45:00,
2013-07-15 14:49:00,87.0,66.7,29.99,WNW,296,0.0,5.0,51,0.00,,SCT060,0.00,921.00,VWS V14.01,2013-07-15 19:49:00,
2013-07-15 14:50:00,87.0,67.3,29.99,WNW,296,0.0,5.0,52,0.00,,BKN009,0.00,921.00,VWS V14.01,2013-07-15 19:50:00,
2013-07-15 14:54:00,87.2,68.5,29.99,WNW,296,2.0,2.0,54,0.00,,SCT060,0.00,963.00,VWS V14.01,2013-07-15 19:54:00,
2013-07-15 14:55:00,87.6,71.0,29.99,WNW,290,0.0,3.0,58,0.00,,BKN009,0.00,963.00,VWS V14.01,2013-07-15 19:55:00,
2013-07-15 14:59:00,88.1,68.8,29.99,ESE,119,3.0,7.0,53,0.00,,SCT060,0.00,951.00,VWS V14.01,2013-07-15 19:59:00,
2013-07-15 15:00:00,88.0,65.9,29.99,ESE,117,0.0,7.0,48,0.00,,BKN009,0.00,951.00,VWS V14.01,2013-07-15 20:00:00,
2013-07-15 15:04:00,88.1,67.7,29.99,SSE,152,0.0,2.0,51,0.00,,BKN055,0.00,1007.00,VWS V14.01,2013-07-15 20:04:00,
2013-07-15 15:05:00,87.9,67.0,29.99,SSE,152,0.0,2.0,50,0.00,,BKN009,0.00,1007.00,VWS V14.01,2013-07-15 20:05:00,
2013-07-15 15:09:00,87.4,68.2,29.99,South,178,1.0,5.0,53,0.00,,BKN055,0.00,1051.00,VWS V14.01,2013-07-15 20:09:00,
2013-07-15 15:10:00,87.4,68.2,29.99,South,188,1.0,5.0,53,0.00,,BKN009,0.00,1053.00,VWS V14.01,2013-07-15 20:10:00,
2013-07-15 15:15:00,86.6,66.9,29.98,SW,217,0.0,3.0,52,0.00,,BKN055,0.00,202.00,VWS V14.01,2013-07-15 20:15:00,
2013-07-15 15:20:00,85.2,66.7,29.98,SE,144,0.0,1.0,54,0.00,,BKN055,0.00,174.00,VWS V14.01,2013-07-15 20:20:00,
2013-07-15 15:25:00,84.0,68.6,29.98,SE,144,0.0,1.0,60,0.00,,BKN055,0.00,246.00,VWS V14.01,2013-07-15 20:25:00,
2013-07-15 15:30:00,83.9,70.4,29.98,SE,144,0.0,1.0,64,0.00,,BKN055,0.00,246.00,VWS V14.01,2013-07-15 20:30:00,
2013-07-15 15:35:00,83.7,67.9,29.98,SE,145,0.0,1.0,59,0.00,,BKN055,0.00,283.00,VWS V14.01,2013-07-15 20:35:00,
2013-07-15 15:40:00,83.5,69.6,29.98,SSE,149,0.0,2.0,63,0.00,,BKN055,0.00,341.00,VWS V14.01,2013-07-15 20:40:00,
2013-07-15 15:45:00,83.8,68.9,29.97,SSE,148,0.0,0.0,61,0.00,,BKN055,0.00,350.00,VWS V14.01,2013-07-15 20:45:00,
2013-07-15 15:50:00,83.9,70.0,29.97,SSE,148,0.0,2.0,63,0.00,,BKN009,0.00,229.00,VWS V14.01,2013-07-15 20:50:00,
2013-07-15 15:51:00,83.9,70.0,29.97,SSE,148,0.0,2.0,63,0.00,,BKN055,0.00,229.00,VWS V14.01,2013-07-15 20:51:00,
2013-07-15 15:55:00,83.8,68.4,29.97,SSE,153,0.0,4.0,60,0.00,,BKN009,0.00,227.00,VWS V14.01,2013-07-15 20:55:00,
2013-07-15 15:56:00,83.8,68.4,29.97,SSE,153,0.0,1.0,60,0.00,,BKN055,0.00,227.00,VWS V14.01,2013-07-15 20:56:00,
2013-07-15 16:00:00,83.2,68.8,29.97,SE,144,0.0,1.0,62,0.00,,BKN009,0.00,255.00,VWS V14.01,2013-07-15 21:00:00,
2013-07-15 16:01:00,83.1,68.7,29.97,SE,144,0.0,0.0,62,0.00,,BKN055,0.00,255.00,VWS V14.01,2013-07-15 21:01:00,
2013-07-15 16:05:00,82.7,67.4,29.97,SE,144,0.0,1.0,60,0.00,,BKN009,0.00,258.00,VWS V14.01,2013-07-15 21:05:00,
2013-07-15 16:06:00,82.7,68.4,29.97,SE,144,0.0,0.0,62,0.00,,OVC100,0.00,258.00,VWS V14.01,2013-07-15 21:06:00,
2013-07-15 16:10:00,82.7,67.9,29.97,NNW,348,0.0,2.0,61,0.00,,BKN009,0.00,276.00,VWS V14.01,2013-07-15 21:10:00,
2013-07-15 16:11:00,82.7,67.9,29.97,NNW,348,0.0,0.0,61,0.00,,OVC100,0.00,276.00,VWS V14.01,2013-07-15 21:11:00,
2013-07-15 16:15:00,82.7,68.8,29.97,North,350,0.0,1.0,63,0.00,,BKN009,0.00,264.00,VWS V14.01,2013-07-15 21:15:00,
2013-07-15 16:17:00,82.8,69.4,29.97,North,350,0.0,1.0,64,0.00,,OVC100,0.00,258.00,VWS V14.01,2013-07-15 21:17:00,
2013-07-15 16:20:00,82.9,69.0,29.97,North,355,1.0,2.0,63,0.00,,BKN009,0.00,281.00,VWS V14.01,2013-07-15 21:20:00,
2013-07-15 16:22:00,83.1,69.7,29.97,ESE,115,3.0,3.0,64,0.00,,OVC100,0.00,309.00,VWS V14.01,2013-07-15 21:22:00,
2013-07-15 16:25:00,83.8,68.9,29.97,East,98,0.0,4.0,61,0.00,,BKN009,0.00,469.00,VWS V14.01,2013-07-15 21:25:00,
2013-07-15 16:27:00,84.4,69.5,29.97,ESE,102,1.0,1.0,61,0.00,,OVC100,0.00,362.00,VWS V14.01,2013-07-15 21:27:00,
2013-07-15 16:30:00,84.7,68.8,29.96,NNE,31,0.0,4.0,59,0.00,,BKN009,0.00,316.00,VWS V14.01,2013-07-15 21:30:00,
2013-07-15 16:33:00,84.6,71.1,29.96,West,273,0.0,3.0,64,0.00,,OVC100,0.00,315.00,VWS V14.01,2013-07-15 21:33:00,
2013-07-15 16:35:00,84.3,69.9,29.96,NNW,334,0.0,3.0,62,0.00,,BKN009,0.00,306.00,VWS V14.01,2013-07-15 21:35:00,
2013-07-15 16:38:00,84.2,68.8,29.96,North,5,0.0,1.0,60,0.00,,OVC100,0.00,308.00,VWS V14.01,2013-07-15 21:38:00,
2013-07-15 16:40:00,84.3,69.4,29.96,North,350,0.0,3.0,61,0.00,,BKN009,0.00,308.00,VWS V14.01,2013-07-15 21:40:00,
2013-07-15 16:44:00,85.2,71.2,29.96,WSW,238,0.0,5.0,63,0.00,,OVC100,0.00,698.00,VWS V14.01,2013-07-15 21:44:00,
2013-07-15 16:45:00,85.4,69.4,29.97,NNW,335,3.0,5.0,59,0.00,,BKN009,0.00,679.00,VWS V14.01,2013-07-15 21:45:00,
2013-07-15 16:49:00,86.0,71.0,29.97,NNW,342,4.0,5.0,61,0.00,,OVC100,0.00,626.00,VWS V14.01,2013-07-15 21:49:00,
2013-07-15 16:50:00,86.1,70.1,29.97,NNW,327,0.0,5.0,59,0.00,,BKN009,0.00,622.00,VWS V14.01,2013-07-15 21:50:00,
2013-07-15 16:54:00,86.1,70.6,29.97,West,281,2.0,3.0,60,0.00,,OVC100,0.00,605.00,VWS V14.01,2013-07-15 21:54:00,
2013-07-15 16:55:00,86.2,71.2,29.97,SE,135,0.0,3.0,61,0.00,,BKN009,0.00,601.00,VWS V14.01,2013-07-15 21:55:00,
2013-07-15 16:59:00,86.4,69.9,29.97,ENE,68,0.0,3.0,58,0.00,,OVC100,0.00,598.00,VWS V14.01,2013-07-15 21:59:00,
2013-07-15 17:00:00,86.4,69.9,29.97,NNW,344,1.0,3.0,58,0.00,,BKN009,0.00,631.00,VWS V14.01,2013-07-15 22:00:00,
2013-07-15 17:04:00,86.4,68.9,29.97,WSW,245,1.0,5.0,56,0.00,,OVC110,0.00,650.00,VWS V14.01,2013-07-15 22:04:00,
2013-07-15 17:05:00,86.2,69.2,29.97,WSW,237,0.0,5.0,57,0.00,,BKN009,0.00,190.00,VWS V14.01,2013-07-15 22:05:00,
2013-07-15 17:09:00,85.0,70.1,29.97,NNW,342,0.0,3.0,61,0.00,,OVC110,0.00,167.00,VWS V14.01,2013-07-15 22:09:00,
2013-07-15 17:10:00,84.7,69.8,29.97,NNW,336,1.0,3.0,61,0.00,,BKN009,0.00,148.00,VWS V14.01,2013-07-15 22:10:00,
2013-07-15 17:14:00,83.6,69.2,29.97,North,11,0.0,4.0,62,0.00,,OVC110,0.00,104.00,VWS V14.01,2013-07-15 22:14:00,
2013-07-15 17:15:00,83.4,69.0,29.97,North,5,0.0,4.0,62,0.00,,BKN009,0.00,104.00,VWS V14.01,2013-07-15 22:15:00,
2013-07-15 17:20:00,82.5,70.4,29.97,ENE,61,0.0,4.0,67,0.00,,OVC110,0.00,172.00,VWS V14.01,2013-07-15 22:20:00,
2013-07-15 17:25:00,83.1,69.2,29.97,NW,319,1.0,8.0,63,0.00,,OVC110,0.00,345.00,VWS V14.01,2013-07-15 22:25:00,
2013-07-15 17:30:00,84.1,68.7,29.97,SE,125,2.0,6.0,60,0.00,,OVC110,0.00,179.00,VWS V14.01,2013-07-15 22:30:00,
2013-07-15 17:35:00,83.5,69.6,29.97,NNW,332,1.0,3.0,63,0.00,,OVC110,0.00,237.00,VWS V14.01,2013-07-15 22:35:00,
2013-07-15 17:40:00,83.1,68.7,29.97,WNW,298,1.0,3.0,62,0.00,,OVC110,0.00,227.00,VWS V14.01,2013-07-15 22:40:00,
2013-07-15 17:45:00,83.0,68.2,29.96,WNW,289,0.0,3.0,61,0.00,,BKN009,0.00,169.00,VWS V14.01,2013-07-15 22:45:00,
2013-07-15 17:46:00,83.0,68.2,29.96,WNW,289,0.0,0.0,61,0.00,,OVC110,0.00,155.00,VWS V14.01,2013-07-15 22:46:00,
2013-07-15 17:50:00,82.9,69.5,29.96,North,355,2.0,3.0,64,0.00,,BKN009,0.00,98.00,VWS V14.01,2013-07-15 22:50:00,
2013-07-15 17:51:00,82.9,69.0,29.96,North,5,2.0,2.0,63,0.00,,OVC110,0.00,90.00,VWS V14.01,2013-07-15 22:51:00,
2013-07-15 17:55:00,82.6,69.7,29.96,SE,137,0.0,2.0,65,0.00,,BKN009,0.00,135.00,VWS V14.01,2013-07-15 22:55:00,
2013-07-15 17:57:00,82.7,69.8,29.96,South,180,0.0,3.0,65,0.00,,OVC110,0.00,135.00,VWS V14.01,2013-07-15 22:57:00,
2013-07-15 18:00:00,83.0,70.0,29.97,WNW,299,3.0,3.0,65,0.00,,BKN009,0.00,179.00,VWS V14.01,2013-07-15 23:00:00,
2013-07-15 18:02:00,82.9,69.5,29.97,ESE,102,2.0,5.0,64,0.00,,BKN110,0.00,188.00,VWS V14.01,2013-07-15 23:02:00,
2013-07-15 18:05:00,82.8,70.3,29.97,NNE,19,0.0,5.0,66,0.00,,BKN009,0.00,169.00,VWS V14.01,2013-07-15 23:05:00,
2013-07-15 18:07:00,82.6,70.1,29.97,North,355,1.0,4.0,66,0.00,,BKN110,0.00,167.00,VWS V14.01,2013-07-15 23:07:00,
2013-07-15 18:10:00,83.0,69.6,29.97,ESE,121,0.0,4.0,64,0.00,,BKN009,0.00,397.00,VWS V14.01,2013-07-15 23:10:00,
2013-07-15 18:12:00,83.0,70.5,29.97,ESE,122,0.0,2.0,66,0.00,,BKN110,0.00,148.00,VWS V14.01,2013-07-15 23:12:00,
2013-07-15 18:15:00,83.0,70.0,29.96,ESE,122,0.0,2.0,65,0.00,,BKN009,0.00,427.00,VWS V14.01,2013-07-15 23:15:00,
2013-07-15 18:18:00,83.6,70.1,29.96,East,97,0.0,2.0,64,0.00,,BKN110,0.00,158.00,VWS V14.01,2013-07-15 23:18:00,
2013-07-15 18:20:00,83.6,70.6,29.96,SE,136,0.0,3.0,65,0.00,,BKN009,0.00,151.00,VWS V14.01,2013-07-15 23:20:00,
2013-07-15 18:23:00,83.3,69.4,29.96,SSE,150,0.0,3.0,63,0.00,,BKN110,0.00,297.00,VWS V14.01,2013-07-15 23:23:00,
2013-07-15 18:25:00,83.4,70.4,29.96,West,262,0.0,3.0,65,0.00,,BKN009,0.00,292.00,VWS V14.01,2013-07-15 23:25:00,
2013-07-15 18:29:00,83.3,70.8,29.96,West,269,0.0,4.0,66,0.00,,BKN110,0.00,216.00,VWS V14.01,2013-07-15 23:29:00,
2013-07-15 18:30:00,83.1,71.0,29.96,West,269,0.0,4.0,67,0.00,,BKN009,0.00,320.00,VWS V14.01,2013-07-15 23:30:00,
2013-07-15 18:34:00,83.4,69.5,29.96,South,180,0.0,3.0,63,0.00,,BKN110,0.00,225.00,VWS V14.01,2013-07-15 23:34:00,
2013-07-15 18:35:00,83.5,70.1,29.96,South,180,0.0,3.0,64,0.00,,BKN009,0.00,185.00,VWS V14.01,2013-07-15 23:35:00,
2013-07-15 18:40:00,83.3,69.9,29.96,SE,142,1.0,1.0,64,0.00,,BKN110,0.00,149.00,VWS V14.01,2013-07-15 23:40:00,
2013-07-15 18:45:00,82.3,70.3,29.97,SSE,153,0.0,1.0,67,0.00,,BKN110,0.00,151.00,VWS V14.01,2013-07-15 23:45:00,
2013-07-15 18:50:00,82.5,69.6,29.97,SSW,195,0.0,5.0,65,0.00,,BKN110,0.00,128.00,VWS V14.01,2013-07-15 23:50:00,
2013-07-15 18:55:00,82.6,69.7,29.97,NNW,346,3.0,4.0,65,0.00,,BKN110,0.00,225.00,VWS V14.01,2013-07-15 23:55:00,
2013-07-15 19:00:00,82.9,69.5,29.98,East,91,0.0,4.0,64,0.00,,BKN110,0.00,130.00,VWS V14.01,2013-07-16 00:00:00,
2013-07-15 19:05:00,82.7,69.8,29.98,SSW,201,0.0,0.0,65,0.00,,CLR,0.00,63.00,VWS V14.01,2013-07-16 00:05:00,
2013-07-15 19:10:00,82.1,69.6,29.98,WNW,290,0.0,4.0,66,0.00,,BKN009,0.00,42.00,VWS V14.01,2013-07-16 00:10:00,
2013-07-15 19:11:00,82.1,70.1,29.98,WNW,290,0.0,1.0,67,0.00,,CLR,0.00,42.00,VWS V14.01,2013-07-16 00:11:00,
2013-07-15 19:15:00,81.8,69.3,29.98,WSW,248,0.0,4.0,66,0.00,,BKN009,0.00,25.00,VWS V14.01,2013-07-16 00:15:00,
2013-07-15 19:16:00,81.8,69.3,29.98,WSW,248,0.0,0.0,66,0.00,,CLR,0.00,25.00,VWS V14.01,2013-07-16 00:16:00,
2013-07-15 19:20:00,81.4,69.4,29.98,SE,136,0.0,2.0,67,0.00,,BKN009,0.00,18.00,VWS V14.01,2013-07-16 00:20:00,
2013-07-15 19:21:00,81.3,69.7,29.98,SE,136,0.0,1.0,68,0.00,,CLR,0.00,16.00,VWS V14.01,2013-07-16 00:21:00,
2013-07-15 19:25:00,81.1,69.1,29.98,SE,130,4.0,4.0,67,0.00,,BKN009,0.00,14.00,VWS V14.01,2013-07-16 00:25:00,
2013-07-15 19:27:00,81.1,69.6,29.98,SSE,148,1.0,4.0,68,0.00,,CLR,0.00,11.00,VWS V14.01,2013-07-16 00:27:00,
2013-07-15 19:30:00,81.0,69.9,29.99,South,175,0.0,4.0,69,0.00,,BKN009,0.00,11.00,VWS V14.01,2013-07-16 00:30:00,
2013-07-15 19:32:00,80.9,69.8,29.99,South,171,0.0,0.0,69,0.00,,CLR,0.00,9.00,VWS V14.01,2013-07-16 00:32:00,
2013-07-15 19:35:00,80.6,69.9,29.99,NNW,327,3.0,8.0,70,0.00,,BKN009,0.00,7.00,VWS V14.01,2013-07-16 00:35:00,
2013-07-15 19:37:00,80.4,69.7,29.99,SSW,209,7.0,11.0,70,0.00,,CLR,0.00,0.00,VWS V14.01,2013-07-16 00:37:00,
2013-07-15 19:40:00,79.6,69.4,29.99,WNW,289,3.0,11.0,71,0.00,,BKN009,0.00,5.00,VWS V14.01,2013-07-16 00:40:00,
2013-07-15 19:42:00,79.0,69.6,29.99,WSW,249,3.0,4.0,73,0.00,,CLR,0.00,5.00,VWS V14.01,2013-07-16 00:42:00,
2013-07-15 19:45:00,78.4,69.4,30.01,ESE,111,0.0,8.0,74,0.00,,BKN009,0.00,5.00,VWS V14.01,2013-07-16 00:45:00,
2013-07-15 19:48:00,77.8,69.2,30.01,SW,221,2.0,2.0,75,0.00,,CLR,0.00,5.00,VWS V14.01,2013-07-16 00:48:00,
2013-07-15 19:50:00,77.6,69.4,30.01,West,267,4.0,7.0,76,0.00,,BKN009,0.00,0.00,VWS V14.01,2013-07-16 00:50:00,
2013-07-15 19:54:00,76.9,69.5,30.01,East,83,0.0,5.0,78,0.00,,CLR,0.00,0.00,VWS V14.01,2013-07-16 00:54:00,
2013-07-15 19:55:00,76.7,69.7,30.01,East,83,1.0,5.0,79,0.00,,BKN009,0.00,0.00,VWS V14.01,2013-07-16 00:55:00,
2013-07-15 19:59:00,76.4,69.8,30.01,NNE,15,0.0,3.0,80,0.00,,CLR,0.00,0.00,VWS V14.01,2013-07-16 00:59:00,
2013-07-15 20:00:00,76.2,69.6,30.01,SSE,161,0.0,4.0,80,0.00,,BKN009,0.00,0.00,VWS V14.01,2013-07-16 01:00:00,
2013-07-15 20:04:00,75.9,69.7,30.01,ESE,105,2.0,2.0,81,0.00,,FEW100,0.00,0.00,VWS V14.01,2013-07-16 01:04:00,
2013-07-15 20:05:00,75.8,69.9,30.01,ESE,117,2.0,3.0,82,0.00,,BKN009,0.00,0.00,VWS V14.01,2013-07-16 01:05:00,
2013-07-15 20:09:00,75.2,70.0,30.01,SSE,157,0.0,3.0,84,0.01,,FEW100,0.01,0.00,VWS V14.01,2013-07-16 01:09:00,
2013-07-15 20:10:00,75.0,70.2,30.01,SSE,157,0.0,3.0,85,0.02,,BKN009,0.02,0.00,VWS V14.01,2013-07-16 01:10:00,
2013-07-15 20:14:00,74.8,70.3,30.01,ESE,110,0.0,3.0,86,0.06,,FEW100,0.06,0.00,VWS V14.01,2013-07-16 01:14:00,
2013-07-15 20:15:00,74.6,70.1,30.04,SW,227,2.0,3.0,86,0.10,,BKN009,0.10,0.00,VWS V14.01,2013-07-16 01:15:00,
2013-07-15 20:19:00,74.3,70.2,30.04,NNW,339,0.0,3.0,87,0.26,,FEW100,0.26,0.00,VWS V14.01,2013-07-16 01:19:00,
2013-07-15 20:20:00,74.2,70.1,30.04,East,92,1.0,4.0,87,0.34,,BKN009,0.34,0.00,VWS V14.01,2013-07-16 01:20:00,
2013-07-15 20:24:00,73.6,69.8,30.04,SSE,163,2.0,4.0,88,0.48,,FEW100,0.48,0.00,VWS V14.01,2013-07-16 01:24:00,
2013-07-15 20:25:00,73.5,69.7,30.04,SSE,165,0.0,4.0,88,0.51,,BKN009,0.51,0.00,VWS V14.01,2013-07-16 01:25:00,
2013-07-15 20:29:00,73.1,69.3,30.03,ESE,111,0.0,2.0,88,0.52,,FEW100,0.52,0.00,VWS V14.01,2013-07-16 01:29:00,
2013-07-15 20:30:00,73.0,69.2,30.03,ESE,111,0.0,2.0,88,0.52,,BKN009,0.52,0.00,VWS V14.01,2013-07-16 01:30:00,
2013-07-15 20:35:00,72.7,69.9,30.03,ESE,111,2.0,2.0,91,0.52,,FEW100,0.52,0.00,VWS V14.01,2013-07-16 01:35:00,
2013-07-15 20:40:00,72.5,70.1,30.03,ESE,111,0.0,1.0,92,0.52,,FEW100,0.52,0.00,VWS V14.01,2013-07-16 01:40:00,
2013-07-15 20:45:00,72.3,70.2,30.01,ESE,111,0.0,2.0,93,0.52,,FEW100,0.52,0.00,VWS V14.01,2013-07-16 01:45:00,
2013-07-15 20:50:00,72.1,70.0,30.01,ESE,111,0.0,1.0,93,0.52,,BKN009,0.52,0.00,VWS V14.01,2013-07-16 01:50:00,
2013-07-15 20:51:00,72.1,70.0,30.01,ESE,111,0.0,0.0,93,0.52,,FEW100,0.52,0.00,VWS V14.01,2013-07-16 01:51:00,
2013-07-15 20:55:00,72.1,70.0,30.01,ESE,111,0.0,0.0,93,0.52,,BKN009,0.52,0.00,VWS V14.01,2013-07-16 01:55:00,
2013-07-15 20:56:00,72.1,70.0,30.01,ESE,111,0.0,0.0,93,0.52,,FEW100,0.52,0.00,VWS V14.01,2013-07-16 01:56:00,
2013-07-15 21:00:00,72.0,69.9,30.01,ESE,111,0.0,0.0,93,0.52,,BKN009,0.52,0.00,VWS V14.01,2013-07-16 02:00:00,
2013-07-15 21:01:00,72.0,69.9,30.01,ESE,111,0.0,0.0,93,0.52,, +RA,0.52,0.00,VWS V14.01,2013-07-16 02:01:00,
2013-07-15 21:05:00,71.9,69.8,30.01,ESE,111,0.0,0.0,93,0.52,,BKN009,0.52,0.00,VWS V14.01,2013-07-16 02:05:00,
2013-07-15 21:06:00,71.9,69.8,30.01,ESE,111,0.0,0.0,93,0.52,, +RA,0.52,0.00,VWS V14.01,2013-07-16 02:06:00,
2013-07-15 21:10:00,71.9,70.1,30.01,ESE,111,0.0,0.0,94,0.52,,BKN009,0.52,0.00,VWS V14.01,2013-07-16 02:10:00,
2013-07-15 21:11:00,71.8,70.0,30.01,ESE,111,0.0,0.0,94,0.50,, +RA,0.52,0.00,VWS V14.01,2013-07-16 02:11:00,
2013-07-15 21:15:00,71.8,70.0,30.01,ESE,111,0.0,0.0,94,0.50,,BKN009,0.52,0.00,VWS V14.01,2013-07-16 02:15:00,
2013-07-15 21:17:00,71.8,70.0,30.01,ESE,111,0.0,0.0,94,0.42,,RA,0.52,0.00,VWS V14.01,2013-07-16 02:17:00,
2013-07-15 21:20:00,71.8,70.0,30.01,ESE,111,0.0,0.0,94,0.42,,BKN009,0.52,0.00,VWS V14.01,2013-07-16 02:20:00,
2013-07-15 21:22:00,71.7,69.9,30.01,ESE,111,0.0,0.0,94,0.18,,RA,0.52,0.00,VWS V14.01,2013-07-16 02:22:00,
2013-07-15 21:25:00,71.7,69.9,30.01,ESE,111,0.0,0.0,94,0.18,,BKN009,0.52,0.00,VWS V14.01,2013-07-16 02:25:00,
2013-07-15 21:27:00,71.7,69.9,30.01,ESE,111,0.0,0.0,94,0.01,,RA,0.52,0.00,VWS V14.01,2013-07-16 02:27:00,
2013-07-15 21:30:00,71.6,69.8,30.03,ESE,111,0.0,0.0,94,0.01,,BKN009,0.52,0.00,VWS V14.01,2013-07-16 02:30:00,
2013-07-15 21:33:00,71.6,69.8,30.03,ESE,111,0.0,0.0,94,0.00,,RA,0.52,0.00,VWS V14.01,2013-07-16 02:33:00,
2013-07-15 21:35:00,71.6,69.8,30.03,ESE,111,0.0,0.0,94,0.00,,BKN009,0.52,0.00,VWS V14.01,2013-07-16 02:35:00,
2013-07-15 21:39:00,71.6,69.8,30.03,ESE,111,0.0,0.0,94,0.00,,RA,0.52,0.00,VWS V14.01,2013-07-16 02:39:00,
2013-07-15 21:40:00,71.6,69.8,30.03,ESE,111,0.0,0.0,94,0.00,,BKN009,0.52,0.00,VWS V14.01,2013-07-16 02:40:00,
2013-07-15 21:44:00,71.5,69.7,30.03,ESE,111,0.0,0.0,94,0.00,,RA,0.52,0.00,VWS V14.01,2013-07-16 02:44:00,
2013-07-15 21:45:00,71.5,69.7,30.03,ESE,111,0.0,0.0,94,0.00,,BKN009,0.52,0.00,VWS V14.01,2013-07-16 02:45:00,
2013-07-15 21:50:00,71.5,70.0,30.03,ESE,111,0.0,1.0,95,0.00,,RA,0.52,0.00,VWS V14.01,2013-07-16 02:50:00,
2013-07-15 21:55:00,71.5,70.0,30.03,ESE,111,0.0,1.0,95,0.00,,RA,0.52,0.00,VWS V14.01,2013-07-16 02:55:00,
2013-07-15 22:00:00,71.5,69.7,30.03,ESE,111,0.0,0.0,94,0.00,,RA,0.52,0.00,VWS V14.01,2013-07-16 03:00:00,
2013-07-15 22:05:00,71.4,69.6,30.03,ESE,111,0.0,0.0,94,0.00,,BKN100,0.52,0.00,VWS V14.01,2013-07-16 03:05:00,
2013-07-15 22:10:00,71.3,69.5,30.03,ESE,111,0.0,0.0,94,0.00,,BKN100,0.52,0.00,VWS V14.01,2013-07-16 03:10:00,
2013-07-15 22:15:00,71.2,69.4,30.04,ESE,111,0.0,0.0,94,0.00,,BKN100,0.52,0.00,VWS V14.01,2013-07-16 03:15:00,
2013-07-15 22:20:00,71.2,69.4,30.04,ESE,111,0.0,0.0,94,0.00,,BKN100,0.52,0.00,VWS V14.01,2013-07-16 03:20:00,
2013-07-15 22:25:00,71.0,69.2,30.04,ESE,111,0.0,0.0,94,0.00,,BKN009,0.52,0.00,VWS V14.01,2013-07-16 03:25:00,
2013-07-15 22:26:00,71.0,69.2,30.04,ESE,111,0.0,0.0,94,0.00,,BKN100,0.52,0.00,VWS V14.01,2013-07-16 03:26:00,
2013-07-15 22:30:00,71.0,69.2,30.04,ESE,111,0.0,0.0,94,0.00,,BKN009,0.52,0.00,VWS V14.01,2013-07-16 03:30:00,
2013-07-15 22:31:00,70.9,69.1,30.04,ESE,111,0.0,0.0,94,0.00,,BKN100,0.52,0.00,VWS V14.01,2013-07-16 03:31:00,
2013-07-15 22:35:00,70.9,69.4,30.04,ESE,111,0.0,0.0,95,0.00,,BKN009,0.52,0.00,VWS V14.01,2013-07-16 03:35:00,
2013-07-15 22:36:00,70.8,69.3,30.04,ESE,111,0.0,0.0,95,0.00,,BKN100,0.52,0.00,VWS V14.01,2013-07-16 03:36:00,
2013-07-15 22:40:00,70.8,69.3,30.04,ESE,111,0.0,0.0,95,0.00,,BKN009,0.52,0.00,VWS V14.01,2013-07-16 03:40:00,
2013-07-15 22:42:00,70.8,69.3,30.04,ESE,111,0.0,0.0,95,0.00,,BKN100,0.52,0.00,VWS V14.01,2013-07-16 03:42:00,
2013-07-15 22:45:00,70.8,69.3,30.05,ESE,111,0.0,0.0,95,0.00,,BKN009,0.52,0.00,VWS V14.01,2013-07-16 03:45:00,
2013-07-15 22:47:00,70.8,69.3,30.05,ESE,111,0.0,0.0,95,0.00,,BKN100,0.52,0.00,VWS V14.01,2013-07-16 03:47:00,
2013-07-15 22:50:00,70.7,69.2,30.05,ESE,111,0.0,0.0,95,0.00,,BKN009,0.52,0.00,VWS V14.01,2013-07-16 03:50:00,
2013-07-15 22:52:00,70.7,69.2,30.05,ESE,111,0.0,0.0,95,0.00,,BKN100,0.52,0.00,VWS V14.01,2013-07-16 03:52:00,
2013-07-15 22:55:00,70.7,69.2,30.05,ESE,111,0.0,0.0,95,0.00,,BKN009,0.52,0.00,VWS V14.01,2013-07-16 03:55:00,
2013-07-15 22:57:00,70.6,69.1,30.05,ESE,111,0.0,0.0,95,0.00,,BKN100,0.52,0.00,VWS V14.01,2013-07-16 03:57:00,
2013-07-15 23:00:00,70.6,69.1,30.05,ESE,111,0.0,0.0,95,0.00,,BKN009,0.52,0.00,VWS V14.01,2013-07-16 04:00:00,
2013-07-15 23:01:00,70.6,69.1,30.05,ESE,111,0.0,0.0,95,0.00,,CLR,0.52,0.00,VWS V14.01,2013-07-16 04:01:00,
2013-07-15 23:02:00,70.6,69.1,30.05,ESE,111,0.0,0.0,95,0.00,,CLR,0.52,0.00,VWS V14.01,2013-07-16 04:02:00,
2013-07-15 23:05:00,70.5,69.0,30.05,ESE,111,0.0,0.0,95,0.00,,BKN009,0.52,0.00,VWS V14.01,2013-07-16 04:05:00,
2013-07-15 23:06:00,70.5,69.0,30.05,ESE,111,0.0,0.0,95,0.00,,CLR,0.52,0.00,VWS V14.01,2013-07-16 04:06:00,
2013-07-15 23:08:00,70.5,69.0,30.05,ESE,111,0.0,0.0,95,0.00,,CLR,0.52,0.00,VWS V14.01,2013-07-16 04:08:00,
2013-07-15 23:10:00,70.5,69.0,30.05,ESE,111,0.0,0.0,95,0.00,,BKN009,0.52,0.00,VWS V14.01,2013-07-16 04:10:00,
2013-07-15 23:13:00,70.4,68.9,30.05,ESE,111,0.0,0.0,95,0.00,,CLR,0.52,0.00,VWS V14.01,2013-07-16 04:13:00,
2013-07-15 23:15:00,70.4,68.9,30.05,ESE,111,0.0,0.0,95,0.00,,BKN009,0.52,0.00,VWS V14.01,2013-07-16 04:15:00,
2013-07-15 23:18:00,70.3,68.8,30.05,ESE,111,0.0,0.0,95,0.00,,CLR,0.52,0.00,VWS V14.01,2013-07-16 04:18:00,
2013-07-15 23:20:00,70.3,68.8,30.05,ESE,111,0.0,0.0,95,0.00,,BKN009,0.52,0.00,VWS V14.01,2013-07-16 04:20:00,
2013-07-15 23:23:00,70.3,68.8,30.05,ESE,111,0.0,0.0,95,0.00,,CLR,0.52,0.00,VWS V14.01,2013-07-16 04:23:00,
2013-07-15 23:25:00,70.2,68.7,30.05,ESE,111,0.0,0.0,95,0.00,,BKN009,0.52,0.00,VWS V14.01,2013-07-16 04:25:00,
2013-07-15 23:29:00,70.2,68.7,30.05,ESE,111,0.0,0.0,95,0.00,,CLR,0.52,0.00,VWS V14.01,2013-07-16 04:29:00,
2013-07-15 23:30:00,70.2,68.7,30.05,ESE,111,0.0,0.0,95,0.00,,BKN009,0.52,0.00,VWS V14.01,2013-07-16 04:30:00,
2013-07-15 23:34:00,70.2,68.7,30.05,ESE,111,0.0,0.0,95,0.00,,CLR,0.52,0.00,VWS V14.01,2013-07-16 04:34:00,
2013-07-15 23:35:00,70.1,68.6,30.05,ESE,111,0.0,0.0,95,0.00,,BKN009,0.52,0.00,VWS V14.01,2013-07-16 04:35:00,
2013-07-15 23:39:00,70.1,68.6,30.05,ESE,111,0.0,0.0,95,0.00,,CLR,0.52,0.00,VWS V14.01,2013-07-16 04:39:00,
2013-07-15 23:40:00,70.1,68.6,30.05,ESE,111,0.0,0.0,95,0.00,,BKN009,0.52,0.00,VWS V14.01,2013-07-16 04:40:00,
2013-07-15 23:44:00,70.0,68.5,30.05,ESE,111,0.0,1.0,95,0.00,,CLR,0.52,0.00,VWS V14.01,2013-07-16 04:44:00,
2013-07-15 23:45:00,70.0,68.5,30.05,ESE,111,0.0,1.0,95,0.00,,BKN009,0.52,0.00,VWS V14.01,2013-07-16 04:45:00,
2013-07-15 23:49:00,70.0,68.8,30.05,ESE,111,0.0,0.0,96,0.00,,CLR,0.52,0.00,VWS V14.01,2013-07-16 04:49:00,
2013-07-15 23:50:00,70.0,68.8,30.05,ESE,111,0.0,0.0,96,0.00,,BKN009,0.52,0.00,VWS V14.01,2013-07-16 04:50:00,
2013-07-15 23:54:00,70.0,68.8,30.05,ESE,111,0.0,1.0,96,0.00,,CLR,0.52,0.00,VWS V14.01,2013-07-16 04:54:00,
2013-07-15 23:55:00,70.0,68.8,30.05,ESE,111,0.0,1.0,96,0.00,,BKN009,0.52,0.00,VWS V14.01,2013-07-16 04:55:00,
2013-07-15 23:59:00,70.0,68.8,30.05,ESE,111,0.0,1.0,96,0.00,,CLR,0.52,0.00,VWS V14.01,2013-07-16 04:59:00,